Showing default

COSMOS 2426 (GLONASS), 29671

Orbit data source: Space-Track

COSMOS 2426 (GLONASS), 29671 is a Commonwealth of Independent States-origin payload satellite in MEO that was launched on Mon, 25 Dec 2006 UTC via a PROTON-K/DM-2 launch vehicle from the Tyuratam Missile And Space Complex (TTMTR). Payload-class satellites include a variety of spacecraft equipped with specific instruments for various scientific and technological missions. These include communications satellites like Starlink; space stations such as the ISS; scientific satellites like the Hubble; Earth observation satellites from companies like Planet Labs, Umbra, and HawkEye 360; GPS; miniature CubeSats for education and research; and military/defense satellites.

Loading next visibility...
Identifier
29671, 2006-062B
Orbit
MEO
Country
Flag of CISCIS
Related business
Manufacturer
Resehetnev ISS
Mission
Non-operational Defense Navigation
Bus & Motor
URAGAN, Unknown motor
Mass
1,450 kg wet, ~1,200 kg dry
Launch date (UTC)
2006-12-25 (19 years ago)
Launch vehicle
PROTON-K/DM-2
Launch site
Tyuratam Missile And Space Complex (TTMTR)
Object type
Payload
Rocket body
Debris
Shape & HBR
Cyl + 1 Arm + 2 Pan, 3.9 m
Radar Cross Section
8.145 m², Large (>1 m²)

Expand to show TLE details & history
Last TLE update: 3 days ago

TLE from 3 days ago
0 COSMOS 2426 (GLONASS)
1 29671U 06062B   25301.37819911  .00000014  00000-0  00000-0 0  9994
2 29671  64.6970 202.2390 0021634 180.2553 350.0529  2.12963631146612
Epoch: 2025-10-28T09:04Z
TLE epoch observation values (Epoch: 2025-10-28T09:04:36.403Z)
Latitude
8.81215°
Longitude
-155.07388°
Altitude
19,086.45 km
Speed
3.961 km/s
True Right ascension
01h 12m 10s
True Declination
8° 47' 51"
Sunlit
Object was in daylight at epoch
Visualization orbit readout
Latitude
Unknown
Longitude
Unknown
Altitude
Unknown
Speed
Unknown
Apparent Right ascension
Unknown
Apparent Declination
Unknown
Sunlit
N/A
Visualization observer readout
Local Sidereal Time
00:36:36
Azimuth
Unknown
Elevation
Unknown
Doppler factor
Unknown
Orbital elements
Apogee altitude
19,195.768 km
Perigee altitude
19,085.354 km
Semi-major axis
25,518.698 km
Eccentricity
0.00216
Inclination
64.697°
RAAN
202.239°
Arg. of periapsis
180.2553°
True anomaly
350.00996°
Mean anomaly
350.0529°
Eccentric anomaly
350.03144°
Mean motion
0.53242 °/min
Orbital period
676.16 mins
BSTAR
0
Loading maneuver chart data...
Computing Atmospheric mass density...
Loading historical data...
Loading historical data...
Loading historical data...
Loading historical data...
Loading historical data...
Loading historical data...
Loading historical data...

Documentation

Showing up to 5 results
|